RADUGA-1M 3 [+]

Last updated on Sept. 26, 2020, 5:40 a.m. UTC

1 39375U 13062A   20269.84272422  .00000133  00000-0  10000-3 0  9990
2 39375   0.6756  96.7402 0005732 331.1815 275.6004  1.00276523 25164
UTC
Height (km)
Latitude
Longitude
Inclination
Orbital Period
UTC large
Height (km)
Speed (km/s)
/
Latitude / Longitude
Inclination (degrees)
Orbital Period (minutes)
Azimuth
Elevation
Range (km)
Doppler Factor
iOS Compass Heading
iOS Angle

Next 30 passes for location: Hong Kong

Rise time Rise Azimuth (degrees) Set time Set Azimuth (degrees) Duration Max altitude (degrees)

No matching passes for this satellites